• In Kazakhstan
  • List of Countries
  • For 7 days
  • Water Temperature
  • Satellite Maps
  • Weather Map
  • News
  • Weather Widgets
  • user-avatar
    Login

    Hourly Weather Redkiy Kust

    Today, 26 May, Sunday

    Time Temperature Precipitation Wind Pressure Humidity
    00:00 +13°C° 0 mm 4 mps 747 mmHg 72%
    01:00 +13°C° 0 mm 4 mps 747 mmHg 72%
    02:00 +13°C° 0 mm 5 mps 747 mmHg 72%
    03:00 +13°C° 0 mm 5 mps 746 mmHg 73%
    04:00 +13°C° 0.1 mm 5 mps 746 mmHg 74%
    05:00 +13°C° 0.1 mm 5 mps 746 mmHg 76%
    06:00 +13°C° 0.1 mm 5 mps 745 mmHg 78%
    07:00 +14°C° 0.1 mm 5 mps 745 mmHg 79%
    08:00 +15°C° 0.1 mm 6 mps 745 mmHg 80%
    09:00 +16°C° 0.1 mm 7 mps 745 mmHg 81%
    10:00 +16°C° 0.1 mm 6 mps 744 mmHg 81%
    11:00 +17°C° 0.1 mm 6 mps 744 mmHg 82%
    12:00 +17°C° 0.1 mm 5 mps 744 mmHg 83%
    13:00 +19°C° 0.8 mm 5 mps 744 mmHg 80%
    14:00 +20°C° 0.8 mm 5 mps 743 mmHg 77%
    15:00 +21°C° 0.8 mm 5 mps 743 mmHg 74%
    16:00 +21°C° 0.4 mm 5 mps 743 mmHg 76%
    17:00 +20°C° 0.4 mm 5 mps 743 mmHg 78%
    18:00 +20°C° 0.4 mm 4 mps 742 mmHg 80%
    19:00 +19°C° 0.2 mm 3 mps 742 mmHg 85%
    20:00 +17°C° 0.2 mm 3 mps 743 mmHg 89%
    21:00 +16°C° 0.2 mm 2 mps 743 mmHg 94%
    22:00 +16°C° 0.2 mm 3 mps 743 mmHg 95%
    23:00 +16°C° 0.2 mm 3 mps 743 mmHg 96%

    Tomorrow, 27 May, Monday

    Time Temperature Precipitation Wind Pressure Humidity
    00:00 +15°C° 0.2 mm 4 mps 743 mmHg 97%
    01:00 +14°C° 0.2 mm 4 mps 744 mmHg 97%
    02:00 +14°C° 0.2 mm 4 mps 744 mmHg 96%
    03:00 +13°C° 0.2 mm 4 mps 745 mmHg 96%
    04:00 +13°C° 0 mm 4 mps 745 mmHg 95%
    05:00 +14°C° 0 mm 3 mps 746 mmHg 94%
    06:00 +14°C° 0 mm 3 mps 746 mmHg 93%
    07:00 +17°C° 0 mm 4 mps 747 mmHg 87%
    08:00 +18°C° 0 mm 4 mps 747 mmHg 81%
    09:00 +20°C° 0 mm 4 mps 748 mmHg 76%
    10:00 +21°C° 0 mm 4 mps 748 mmHg 71%
    11:00 +22°C° 0 mm 5 mps 749 mmHg 66%
    12:00 +23°C° 0 mm 5 mps 749 mmHg 61%
    13:00 +23°C° 0 mm 5 mps 749 mmHg 61%
    14:00 +23°C° 0 mm 5 mps 750 mmHg 60%
    15:00 +23°C° 0 mm 5 mps 750 mmHg 59%
    16:00 +23°C° 0 mm 5 mps 750 mmHg 63%
    17:00 +22°C° 0 mm 4 mps 751 mmHg 66%
    18:00 +22°C° 0 mm 3 mps 751 mmHg 70%
    19:00 +20°C° 0 mm 3 mps 751 mmHg 75%
    20:00 +18°C° 0 mm 2 mps 752 mmHg 81%
    21:00 +16°C° 0 mm 2 mps 752 mmHg 86%
    22:00 +16°C° 0 mm 2 mps 752 mmHg 88%
    23:00 +15°C° 0 mm 2 mps 753 mmHg 89%

    Day after tomorrow, 28 May, Tuesday

    Time Temperature Precipitation Wind Pressure Humidity
    00:00 +15°C° 0 mm 2 mps 753 mmHg 90%
    01:00 +14°C° 0 mm 2 mps 753 mmHg 91%
    02:00 +14°C° 0 mm 2 mps 754 mmHg 91%
    03:00 +14°C° 0 mm 2 mps 754 mmHg 92%
    04:00 +14°C° 0 mm 1 mps 754 mmHg 90%
    05:00 +15°C° 0 mm 1 mps 754 mmHg 88%
    06:00 +16°C° 0 mm 1 mps 754 mmHg 86%
    07:00 +18°C° 0 mm 1 mps 754 mmHg 80%
    08:00 +19°C° 0 mm 2 mps 755 mmHg 74%
    09:00 +21°C° 0 mm 2 mps 755 mmHg 68%
    10:00 +23°C° 0 mm 2 mps 755 mmHg 64%
    11:00 +24°C° 0 mm 2 mps 755 mmHg 60%
    12:00 +25°C° 0 mm 2 mps 755 mmHg 56%
    13:00 +25°C° 0 mm 2 mps 755 mmHg 55%
    14:00 +26°C° 0 mm 2 mps 755 mmHg 54%
    15:00 +26°C° 0 mm 2 mps 755 mmHg 53%
    16:00 +26°C° 0 mm 1 mps 755 mmHg 56%
    17:00 +26°C° 0 mm 1 mps 754 mmHg 59%
    18:00 +26°C° 0 mm 1 mps 754 mmHg 61%
    19:00 +24°C° 0 mm 1 mps 755 mmHg 66%
    20:00 +22°C° 0 mm 1 mps 755 mmHg 71%
    21:00 +20°C° 0 mm 1 mps 755 mmHg 76%
    22:00 +20°C° 0 mm 1 mps 755 mmHg 78%
    23:00 +19°C° 0 mm 1 mps 755 mmHg 80%

    29 May, Wednesday

    Time Temperature Precipitation Wind Pressure Humidity
    00:00 +19°C° 0 mm 1 mps 755 mmHg 83%
    01:00 +18°C° 0 mm 1 mps 756 mmHg 84%
    02:00 +18°C° 0 mm 1 mps 756 mmHg 85%
    03:00 +18°C° 0 mm 1 mps 756 mmHg 87%
    04:00 +18°C° 0 mm 1 mps 756 mmHg 84%
    05:00 +19°C° 0 mm 1 mps 756 mmHg 82%
    06:00 +20°C° 0 mm 1 mps 756 mmHg 80%
    07:00 +22°C° 0 mm 1 mps 756 mmHg 75%
    08:00 +23°C° 0 mm 1 mps 756 mmHg 70%
    09:00 +25°C° 0 mm 1 mps 756 mmHg 65%
    10:00 +26°C° 0 mm 2 mps 756 mmHg 61%
    11:00 +27°C° 0 mm 2 mps 756 mmHg 58%
    12:00 +27°C° 0 mm 2 mps 756 mmHg 54%
    13:00 +28°C° 0 mm 2 mps 756 mmHg 53%
    14:00 +28°C° 0 mm 2 mps 756 mmHg 51%
    15:00 +29°C° 0 mm 2 mps 755 mmHg 50%
    16:00 +28°C° 0 mm 2 mps 755 mmHg 54%
    17:00 +28°C° 0 mm 1 mps 755 mmHg 57%
    18:00 +28°C° 0 mm 1 mps 755 mmHg 61%
    19:00 +26°C° 0 mm 1 mps 755 mmHg 65%
    20:00 +24°C° 0 mm 1 mps 755 mmHg 69%
    21:00 +22°C° 0 mm 1 mps 755 mmHg 73%
    22:00 +21°C° 0 mm 1 mps 755 mmHg 74%
    23:00 +21°C° 0 mm 1 mps 755 mmHg 76%

    30 May, Thursday

    Time Temperature Precipitation Wind Pressure Humidity
    00:00 +20°C° 0 mm 1 mps 755 mmHg 77%
    01:00 +20°C° 0 mm 1 mps 755 mmHg 78%
    02:00 +19°C° 0 mm 1 mps 756 mmHg 80%
    03:00 +19°C° 0 mm 1 mps 756 mmHg 82%
    04:00 +19°C° 0 mm 1 mps 756 mmHg 81%
    05:00 +20°C° 0 mm 1 mps 756 mmHg 80%
    06:00 +20°C° 0 mm 2 mps 756 mmHg 78%
    07:00 +23°C° 0 mm 2 mps 756 mmHg 73%
    08:00 +24°C° 0 mm 2 mps 756 mmHg 68%
    09:00 +26°C° 0 mm 3 mps 756 mmHg 63%
    10:00 +27°C° 0 mm 3 mps 756 mmHg 59%
    11:00 +28°C° 0 mm 3 mps 755 mmHg 56%
    12:00 +29°C° 0 mm 3 mps 755 mmHg 52%
    13:00 +29°C° 0 mm 3 mps 755 mmHg 51%
    14:00 +29°C° 0 mm 3 mps 755 mmHg 50%
    15:00 +30°C° 0 mm 3 mps 755 mmHg 49%
    16:00 +29°C° 0 mm 2 mps 754 mmHg 53%
    17:00 +29°C° 0 mm 2 mps 754 mmHg 58%
    18:00 +29°C° 0 mm 2 mps 754 mmHg 62%
    19:00 +27°C° 0 mm 2 mps 754 mmHg 65%
    20:00 +25°C° 0 mm 2 mps 754 mmHg 67%
    21:00 +23°C° 0 mm 2 mps 754 mmHg 70%
    22:00 +21°C° 0 mm 2 mps 754 mmHg 72%
    23:00 +21°C° 0 mm 2 mps 754 mmHg 74%

    31 May, Friday

    Time Temperature Precipitation Wind Pressure Humidity
    00:00 +20°C° 0 mm 2 mps 754 mmHg 76%
    01:00 +20°C° 0 mm 2 mps 754 mmHg 78%
    02:00 +20°C° 0 mm 2 mps 754 mmHg 80%
    03:00 +19°C° 0 mm 2 mps 754 mmHg 82%
    04:00 +20°C° 0 mm 2 mps 754 mmHg 82%
    05:00 +21°C° 0 mm 2 mps 754 mmHg 82%
    06:00 +21°C° 0 mm 2 mps 754 mmHg 82%
    07:00 +24°C° 0 mm 3 mps 754 mmHg 77%
    08:00 +26°C° 0 mm 3 mps 754 mmHg 72%
    09:00 +28°C° 0 mm 3 mps 754 mmHg 67%
    10:00 +29°C° 0 mm 3 mps 754 mmHg 61%
    11:00 +30°C° 0 mm 3 mps 754 mmHg 56%
    12:00 +31°C° 0 mm 3 mps 754 mmHg 50%
    13:00 +33°C° 0 mm 3 mps 753 mmHg 49%
    14:00 +33°C° 0 mm 4 mps 753 mmHg 47%
    15:00 +33°C° 0 mm 4 mps 753 mmHg 46%
    16:00 +33°C° 0 mm 3 mps 753 mmHg 50%
    17:00 +31°C° 0 mm 3 mps 753 mmHg 54%
    18:00 +31°C° 0 mm 3 mps 753 mmHg 58%
    19:00 +29°C° 0 mm 3 mps 753 mmHg 61%
    20:00 +27°C° 0 mm 3 mps 753 mmHg 64%
    21:00 +25°C° 0 mm 3 mps 753 mmHg 68%
    22:00 +24°C° 0.1 mm 3 mps 753 mmHg 68%
    23:00 +24°C° 0.1 mm 3 mps 753 mmHg 69%
    Show more